Regional Weather Roundup
Issued by NWS

Home | Current Version | Previous Version | Text Only | Print | Product List | Glossary On
Versions: 1 2 3 4 5 6 7 8 9 10 11 12 13 14 15 16 17 18 19 20 21 22 23 24 25 26 27 28 29 30 31 32 33 34 35 36 37 38 39 40 41 42 43 44 45 46 47 48 49 50
000
ASUS43 KIND 281109
RWRIN

WEATHER ROUNDUP FOR INDIANA
NATIONAL WEATHER SERVICE INDIANAPOLIS IN
700 AM EDT THU MAY 28 2015

NOTE: "FAIR" INDICATES FEW OR NO CLOUDS BELOW 12,000 FEET WITH NO
SIGNIFICANT WEATHER AND/OR OBSTRUCTIONS TO VISIBILITY.

* - STATION DOES NOT REPORT WEATHER SUCH AS PRECIPITATION OR FOG.

+ - STATION NOT QUALITY CONTROLLED BY THE NATIONAL WEATHER SERVICE.
    USE DATA WITH CAUTION...ESPECIALLY DEWPOINT AND RELATIVE
    HUMIDITY OBSERVATIONS.

INZ001>003-010>013-019-020-281200-
NORTHWEST INDIANA

CITY           SKY/WX    TMP DP  RH WIND       PRES   REMARKS
GARY /AIRPORT/ PTCLDY    54  54 100 SE6       30.20R
KNOX *+        CLEAR     52  52 100 CALM      30.20R
LA PORTE +     CLEAR     54  54 100 CALM      30.21R FOG
MICHIGAN CITY+ CLEAR     52  52 100 CALM      30.21R
MONTICELLO +   CLEAR     53  53 100 CALM      30.20R
RENSSELAER +   CLEAR     55  55 100 NE3       30.21R FOG
VALPARAISO     CLEAR     52  51  97 CALM      30.21R

$$

LMZ046-743>745-281200-
SOUTHERN LAKE MICHIGAN

STATION/POSITION TIME  TEMP    WIND        PRES    WAVE
                       AIR SEA DIR/SP/G            HT
                 (UTC) (F)     (DEG/KT/KT) (MB)    (FT)
BURNS HARBOR     1100   61     120/  1/  3 1022.7S
MICHIGAN CITY    1100   58     120/  9/ 10   N/A
5NW MICH CITY    1100   55 53  150/  4/  4   N/A     0

$$

INZ004-005-014>016-021>024-281200-
NORTH CENTRAL INDIANA

CITY           SKY/WX    TMP DP  RH WIND       PRES   REMARKS
ELKHART        CLEAR     55  55 100 CALM      30.22  FOG
GOSHEN         PTCLDY    52  51  97 CALM      30.21R FOG
LOGANSPORT +   CLEAR     52  50  93 N5        30.21S
PERU/GRISSOM   CLEAR     54  52  95 N6        30.19R
ROCHESTER +    CLEAR     54  54 100 CALM      30.21R FOG
SOUTH BEND     CLEAR     53  50  89 NE3       30.22R
WARSAW +       PTCLDY    50  50 100 CALM      30.21R FOG

$$

INZ006>009-017-018-025>027-281200-
NORTHEAST INDIANA

CITY           SKY/WX    TMP DP  RH WIND       PRES   REMARKS
ANGOLA *+      CLOUDY    48  48 100 CALM      30.21S VSB 0
AUBURN +       CLEAR     54  52  94 CALM      30.22R FOG
FORT WAYNE     PTCLDY    56  54  93 CALM      30.22R
HUNTINGTON +   CLEAR     54  53  97 CALM      30.21R FOG

$$

INZ028-029-035-036-043>045-051>053-281200-
WEST CENTRAL INDIANA

CITY           SKY/WX    TMP DP  RH WIND       PRES   REMARKS
CRAWFORDSVL +  CLEAR     53  50  90 NE5       30.19R
GREENCASTLE +  CLEAR     55  52  88 CALM      30.20R
LAFAYETTE      CLEAR     55  54  96 S3        30.19R
TERRE HAUTE    CLEAR     59  56  89 NE3       30.18R

$$

INZ030>032-037>040-046>048-054>057-064-065-281200-
CENTRAL INDIANA

CITY           SKY/WX    TMP DP  RH WIND       PRES   REMARKS
CP ATTERBURY + FOG       57  55  94 CALM      30.20R VSB<1/4
COLUMBUS       CLEAR     61  59  94 CALM      30.19  FOG
FISHERS *+     PTCLDY    54  54 100 NE3       30.21R
FRANKFORT +    FAIR      55  55 100 CALM      30.22R
GREENWOOD *+   PTCLDY    61  55  82 NE7       30.20R
INDIANAPOLIS   PTCLDY    60  55  83 E3        30.18R
-EAGLE CREEK   CLEAR     56  55  97 CALM      30.19R
KOKOMO *+      CLEAR     54  50  87 SE3       30.20R
MARION +       CLEAR     56  54  95 CALM      30.21R
MT COMFORT *+  PTCLDY    57 N/A N/A N7        30.21R
SHELBYVILLE    PTCLDY    62  59  90 NE3       30.19R
ZIONSVILLE +   CLEAR     55  53  90 NE6       30.21S

$$

INZ033-034-041-042-049-050-058-059-281200-
EAST CENTRAL INDIANA

CITY           SKY/WX    TMP DP  RH WIND       PRES   REMARKS
MUNCIE         CLEAR     57  55  93 CALM      30.21R

$$

INZ060-061-067>069-081>083-085>088-281200-
SOUTHWEST INDIANA

CITY           SKY/WX    TMP DP  RH WIND       PRES   REMARKS
EVANSVILLE     FOG       64  63  96 CALM      30.17R VSB 1/2
HUNTINGBURG *+ CLOUDY    64  61  88 SE5       30.18R VSB 1/2
WASHINGTON +   MOCLDY    62  58  88 CALM      30.16S FOG

$$

INZ062-063-066-070>080-084-089>092-281200-
SOUTH CENTRAL AND SOUTHEAST INDIANA

CITY           SKY/WX    TMP DP  RH WIND       PRES   REMARKS
BLOOMINGTON    FOG       59  58  96 CALM      30.18S VSB 1/4
MADISON *+     CLOUDY    63  61  94 CALM      30.22R
NORTH VERNON + CLOUDY    63  63 100 CALM      30.20R FOG
SEYMOUR +      CLOUDY    66  64  94 CALM      30.19R FOG

$$



USA.gov is the U.S. government's official web portal to all federal, state and local government web resources and services.